Time,TemperatureF,DewpointF,PressureIn,WindDirection,WindDirectionDegrees,WindSpeedMPH,WindSpeedGustMPH,Humidity,HourlyPrecipIn,Conditions,Clouds,dailyrainin,SolarRadiationWatts/m^2,SoftwareType,DateUTC
2013-09-10 00:01:00,80.4,70.9,29.88,SW,218,8.1,8.1,73,0.00,CLR,,0.00,0.0,WeatherDisplay:10.37,2013-09-10 05:01:00,
2013-09-10 00:06:00,80.2,70.8,29.89,SSW,207,6.9,6.9,73,0.00,CLR,,0.00,0.0,WeatherDisplay:10.37,2013-09-10 05:06:00,
2013-09-10 00:11:00,80.1,70.7,29.88,SW,233,8.1,8.1,73,0.00,CLR,,0.00,0.0,WeatherDisplay:10.37,2013-09-10 05:11:00,
2013-09-10 00:16:00,80.0,70.6,29.88,SW,216,6.9,6.9,73,0.00,CLR,,0.00,0.0,WeatherDisplay:10.37,2013-09-10 05:16:00,
2013-09-10 00:21:00,79.8,70.4,29.88,South,178,5.8,5.8,73,0.00,CLR,,0.00,0.0,WeatherDisplay:10.37,2013-09-10 05:21:00,
2013-09-10 00:26:00,79.8,70.8,29.89,SSW,207,5.8,5.8,74,0.00,CLR,,0.00,0.0,WeatherDisplay:10.37,2013-09-10 05:26:00,
2013-09-10 00:31:00,79.7,70.7,29.88,SSW,200,8.1,8.1,74,0.00,CLR,,0.00,0.0,WeatherDisplay:10.37,2013-09-10 05:31:00,
2013-09-10 00:36:00,79.7,70.7,29.89,SW,215,10.4,10.4,74,0.00,CLR,,0.00,0.0,WeatherDisplay:10.37,2013-09-10 05:36:00,
2013-09-10 00:41:00,79.6,70.6,29.89,SW,227,8.1,8.1,74,0.00,CLR,,0.00,0.0,WeatherDisplay:10.37,2013-09-10 05:41:00,
2013-09-10 00:46:00,79.5,70.5,29.88,SW,217,6.9,6.9,74,0.00,CLR,,0.00,0.0,WeatherDisplay:10.37,2013-09-10 05:46:00,
2013-09-10 00:51:00,79.4,70.4,29.89,SW,220,5.8,5.8,74,0.00,CLR,,0.00,0.0,WeatherDisplay:10.37,2013-09-10 05:51:00,
2013-09-10 00:56:00,79.3,70.3,29.89,South,184,6.9,6.9,74,0.00,CLR,,0.00,0.0,WeatherDisplay:10.37,2013-09-10 05:56:00,
2013-09-10 01:01:00,79.2,70.2,29.89,SSW,201,7.0,7.0,74,0.00,CLR,,0.00,0.0,WeatherDisplay:10.37,2013-09-10 06:01:00,
2013-09-10 01:06:00,79.1,70.5,29.89,SSW,197,8.1,8.1,75,0.00,CLR,,0.00,0.0,WeatherDisplay:10.37,2013-09-10 06:06:00,
2013-09-10 01:11:00,78.9,70.3,29.89,SW,227,3.5,3.5,75,0.00,CLR,,0.00,0.0,WeatherDisplay:10.37,2013-09-10 06:11:00,
2013-09-10 01:16:00,78.7,70.1,29.89,SSW,205,7.0,7.0,75,0.00,CLR,,0.00,0.0,WeatherDisplay:10.37,2013-09-10 06:16:00,
2013-09-10 01:21:00,78.6,70.4,29.89,SW,225,8.1,8.1,76,0.00,CLR,,0.00,0.0,WeatherDisplay:10.37,2013-09-10 06:21:00,
2013-09-10 01:26:00,78.5,70.3,29.89,SSW,211,9.2,9.2,76,0.00,CLR,,0.00,0.0,WeatherDisplay:10.37,2013-09-10 06:26:00,
2013-09-10 01:31:00,78.4,70.2,29.89,SW,236,6.9,6.9,76,0.00,CLR,,0.00,0.0,WeatherDisplay:10.37,2013-09-10 06:31:00,
2013-09-10 01:36:00,78.1,69.9,29.90,SSW,212,9.2,9.2,76,0.00,CLR,,0.00,0.0,WeatherDisplay:10.37,2013-09-10 06:36:00,
2013-09-10 01:41:00,78.0,70.2,29.90,SW,227,4.6,4.6,77,0.00,CLR,,0.00,0.0,WeatherDisplay:10.37,2013-09-10 06:41:00,
2013-09-10 01:46:00,77.7,69.9,29.90,SW,214,8.1,8.1,77,0.00,CLR,,0.00,0.0,WeatherDisplay:10.37,2013-09-10 06:46:00,
2013-09-10 01:51:00,77.6,70.2,29.90,SW,225,4.6,4.6,78,0.00,CLR,,0.00,0.0,WeatherDisplay:10.37,2013-09-10 06:51:00,
2013-09-10 01:56:00,77.5,70.1,29.89,SW,236,8.1,8.1,78,0.00,CLR,,0.00,0.0,WeatherDisplay:10.37,2013-09-10 06:56:00,
2013-09-10 02:01:00,77.5,70.1,29.90,SW,217,10.4,10.4,78,0.00,CLR,,0.00,0.0,WeatherDisplay:10.37,2013-09-10 07:01:00,
2013-09-10 02:06:00,77.6,70.2,29.90,SW,220,8.1,8.1,78,0.00,CLR,,0.00,0.0,WeatherDisplay:10.37,2013-09-10 07:06:00,
2013-09-10 02:11:00,77.6,70.2,29.90,SW,228,8.1,8.1,78,0.00,CLR,,0.00,0.0,WeatherDisplay:10.37,2013-09-10 07:11:00,
2013-09-10 02:17:00,77.6,70.2,29.90,WSW,250,10.4,10.4,78,0.00,CLR,,0.00,0.0,WeatherDisplay:10.37,2013-09-10 07:17:00,
2013-09-10 02:22:00,77.5,70.1,29.90,SW,222,9.2,9.2,78,0.00,CLR,,0.00,0.0,WeatherDisplay:10.37,2013-09-10 07:22:00,
2013-09-10 02:27:00,77.5,70.1,29.90,SSW,209,6.9,6.9,78,0.00,CLR,,0.00,0.0,WeatherDisplay:10.37,2013-09-10 07:27:00,
2013-09-10 02:32:00,77.4,70.0,29.90,SSW,209,8.1,8.1,78,0.00,CLR,,0.00,0.0,WeatherDisplay:10.37,2013-09-10 07:32:00,
2013-09-10 02:37:00,77.3,70.3,29.90,WSW,240,6.9,6.9,79,0.00,CLR,,0.00,0.0,WeatherDisplay:10.37,2013-09-10 07:37:00,
2013-09-10 02:42:00,77.2,70.2,29.90,SW,216,11.5,11.5,79,0.00,CLR,,0.00,0.0,WeatherDisplay:10.37,2013-09-10 07:42:00,
2013-09-10 02:47:00,77.2,70.2,29.91,SW,216,8.1,8.1,79,0.00,CLR,,0.00,0.0,WeatherDisplay:10.37,2013-09-10 07:47:00,
2013-09-10 02:52:00,77.1,70.1,29.91,SW,219,5.0,5.2,79,0.00,CLR,,0.00,0.0,WeatherDisplay:10.37,2013-09-10 07:52:00,
2013-09-10 02:57:00,76.9,69.9,29.91,SW,226,6.9,6.9,79,0.00,CLR,,0.00,0.0,WeatherDisplay:10.37,2013-09-10 07:57:00,
2013-09-10 03:02:00,76.8,70.2,29.91,SSW,198,6.9,6.9,80,0.00,CLR,,0.00,0.0,WeatherDisplay:10.37,2013-09-10 08:02:00,
2013-09-10 03:07:00,76.6,70.0,29.91,SSW,205,8.1,8.1,80,0.00,CLR,,0.00,0.0,WeatherDisplay:10.37,2013-09-10 08:07:00,
2013-09-10 03:12:00,76.5,69.9,29.91,SW,227,8.1,8.1,80,0.00,CLR,,0.00,0.0,WeatherDisplay:10.37,2013-09-10 08:12:00,
2013-09-10 03:17:00,76.5,69.9,29.91,SW,223,8.1,8.1,80,0.00,CLR,,0.00,0.0,WeatherDisplay:10.37,2013-09-10 08:17:00,
2013-09-10 03:22:00,76.4,69.8,29.91,SW,224,7.0,7.0,80,0.00,CLR,,0.00,0.0,WeatherDisplay:10.37,2013-09-10 08:22:00,
2013-09-10 03:27:00,76.4,69.8,29.91,SW,218,8.1,8.1,80,0.00,CLR,,0.00,0.0,WeatherDisplay:10.37,2013-09-10 08:27:00,
2013-09-10 03:32:00,76.3,69.7,29.91,SSW,203,6.9,6.9,80,0.00,CLR,,0.00,0.0,WeatherDisplay:10.37,2013-09-10 08:32:00,
2013-09-10 03:37:00,76.1,69.8,29.91,SSW,201,7.0,7.0,81,0.00,CLR,,0.00,0.0,WeatherDisplay:10.37,2013-09-10 08:37:00,
2013-09-10 03:42:00,76.1,69.8,29.92,SW,235,5.0,5.0,81,0.00,CLR,,0.00,0.0,WeatherDisplay:10.37,2013-09-10 08:42:00,
2013-09-10 03:47:00,76.0,69.7,29.92,SSW,206,6.9,6.9,81,0.00,CLR,,0.00,0.0,WeatherDisplay:10.37,2013-09-10 08:47:00,
2013-09-10 03:52:00,75.9,69.6,29.92,SSW,192,5.8,5.8,81,0.00,CLR,,0.00,0.0,WeatherDisplay:10.37,2013-09-10 08:52:00,
2013-09-10 03:57:00,75.8,69.6,29.92,SSW,196,8.1,8.1,81,0.00,CLR,,0.00,0.0,WeatherDisplay:10.37,2013-09-10 08:57:00,
2013-09-10 04:02:00,75.7,69.5,29.92,SSW,197,4.6,4.6,81,0.00,CLR,,0.00,0.0,WeatherDisplay:10.37,2013-09-10 09:02:00,
2013-09-10 04:07:00,75.5,69.6,29.92,SW,220,5.8,5.8,82,0.00,CLR,,0.00,0.0,WeatherDisplay:10.37,2013-09-10 09:07:00,
2013-09-10 04:12:00,75.3,69.4,29.92,SW,224,5.8,5.8,82,0.00,CLR,,0.00,0.0,WeatherDisplay:10.37,2013-09-10 09:12:00,
2013-09-10 04:17:00,75.2,69.3,29.92,SW,236,4.6,4.6,82,0.00,CLR,,0.00,0.0,WeatherDisplay:10.37,2013-09-10 09:17:00,
2013-09-10 04:22:00,75.1,69.2,29.92,SSW,208,5.8,5.8,82,0.00,CLR,,0.00,0.0,WeatherDisplay:10.37,2013-09-10 09:22:00,
2013-09-10 04:27:00,75.1,69.2,29.92,SSW,203,5.8,5.8,82,0.00,CLR,,0.00,0.0,WeatherDisplay:10.37,2013-09-10 09:27:00,
2013-09-10 04:32:00,75.1,69.2,29.92,SSW,211,4.6,4.6,82,0.00,CLR,,0.00,0.0,WeatherDisplay:10.37,2013-09-10 09:32:00,
2013-09-10 04:37:00,75.0,69.1,29.92,SW,224,5.8,5.8,82,0.00,CLR,,0.00,0.0,WeatherDisplay:10.37,2013-09-10 09:37:00,
2013-09-10 04:42:00,74.9,69.0,29.93,SW,217,6.0,6.0,82,0.00,CLR,,0.00,0.0,WeatherDisplay:10.37,2013-09-10 09:42:00,
2013-09-10 04:47:00,74.8,68.9,29.93,SSW,212,6.9,6.9,82,0.00,CLR,,0.00,0.0,WeatherDisplay:10.37,2013-09-10 09:47:00,
2013-09-10 04:52:00,74.8,68.9,29.93,SSW,211,3.5,3.5,82,0.00,CLR,,0.00,0.0,WeatherDisplay:10.37,2013-09-10 09:52:00,
2013-09-10 04:57:00,74.8,68.6,29.93,SSW,211,3.5,3.5,81,0.00,CLR,,0.00,0.0,WeatherDisplay:10.37,2013-09-10 09:57:00,
2013-09-10 05:02:00,74.7,68.5,29.93,SW,217,3.5,3.5,81,0.00,CLR,,0.00,0.0,WeatherDisplay:10.37,2013-09-10 10:02:00,
2013-09-10 05:07:00,74.7,68.5,29.93,SSW,200,3.5,3.5,81,0.00,CLR,,0.00,0.0,WeatherDisplay:10.37,2013-09-10 10:07:00,
2013-09-10 05:12:00,74.6,68.7,29.93,South,187,5.8,5.8,82,0.00,CLR,,0.00,0.0,WeatherDisplay:10.37,2013-09-10 10:12:00,
2013-09-10 05:17:00,74.3,68.4,29.94,SW,229,4.0,4.0,82,0.00,CLR,,0.00,0.0,WeatherDisplay:10.37,2013-09-10 10:17:00,
2013-09-10 05:22:00,74.0,68.5,29.94,SW,225,5.0,5.0,83,0.00,CLR,,0.00,0.0,WeatherDisplay:10.37,2013-09-10 10:22:00,
2013-09-10 05:27:00,74.0,68.2,29.94,SSW,213,3.5,3.5,82,0.00,CLR,,0.00,0.0,WeatherDisplay:10.37,2013-09-10 10:27:00,
2013-09-10 05:32:00,74.0,68.2,29.94,SSW,205,4.6,4.6,82,0.00,CLR,,0.00,0.0,WeatherDisplay:10.37,2013-09-10 10:32:00,
2013-09-10 05:37:00,73.9,68.4,29.94,SSW,200,4.6,4.6,83,0.00,CLR,,0.00,0.0,WeatherDisplay:10.37,2013-09-10 10:37:00,
2013-09-10 05:42:00,73.7,68.2,29.94,SSW,211,3.5,3.5,83,0.00,CLR,,0.00,0.0,WeatherDisplay:10.37,2013-09-10 10:42:00,
2013-09-10 05:48:00,73.6,68.1,29.95,SSW,209,4.0,4.0,83,0.00,CLR,,0.00,0.0,WeatherDisplay:10.37,2013-09-10 10:48:00,
2013-09-10 05:53:00,73.5,68.4,29.95,SSW,209,3.5,3.5,84,0.00,CLR,,0.00,0.0,WeatherDisplay:10.37,2013-09-10 10:53:00,
2013-09-10 05:58:00,73.3,68.2,29.95,SSW,208,3.5,3.5,84,0.00,CLR,,0.00,0.0,WeatherDisplay:10.37,2013-09-10 10:58:00,
2013-09-10 06:03:00,73.2,68.1,29.95,SSW,205,5.8,5.8,84,0.00,CLR,,0.00,0.0,WeatherDisplay:10.37,2013-09-10 11:03:00,
2013-09-10 06:08:00,73.2,68.1,29.95,SSW,208,5.8,5.8,84,0.00,CLR,,0.00,0.0,WeatherDisplay:10.37,2013-09-10 11:08:00,
2013-09-10 06:13:00,73.2,68.1,29.95,SSW,209,6.9,6.9,84,0.00,CLR,,0.00,0.0,WeatherDisplay:10.37,2013-09-10 11:13:00,
2013-09-10 06:18:00,73.2,68.1,29.96,SW,220,6.9,6.9,84,0.00,CLR,,0.00,0.0,WeatherDisplay:10.37,2013-09-10 11:18:00,
2013-09-10 06:23:00,73.2,68.1,29.96,SSW,194,6.9,6.9,84,0.00,CLR,,0.00,0.0,WeatherDisplay:10.37,2013-09-10 11:23:00,
2013-09-10 06:28:00,73.1,68.0,29.96,SSW,205,6.0,6.0,84,0.00,CLR,,0.00,0.0,WeatherDisplay:10.37,2013-09-10 11:28:00,
2013-09-10 06:33:00,73.0,67.9,29.96,SW,229,6.0,6.0,84,0.00,CLR,,0.00,5.0,WeatherDisplay:10.37,2013-09-10 11:33:00,
2013-09-10 06:38:00,72.9,67.8,29.97,SSW,195,7.0,7.0,84,0.00,CLR,,0.00,9.0,WeatherDisplay:10.37,2013-09-10 11:38:00,
2013-09-10 06:43:00,72.9,67.8,29.97,SSW,207,8.1,8.1,84,0.00,CLR,,0.00,12.0,WeatherDisplay:10.37,2013-09-10 11:43:00,
2013-09-10 06:48:00,72.9,67.8,29.97,SW,219,6.9,6.9,84,0.00,CLR,,0.00,16.0,WeatherDisplay:10.37,2013-09-10 11:48:00,
2013-09-10 06:53:00,73.0,67.9,29.97,SSW,206,6.9,6.9,84,0.00,CLR,,0.00,19.0,WeatherDisplay:10.37,2013-09-10 11:53:00,
2013-09-10 06:58:00,73.1,67.6,29.97,SSW,209,5.8,5.8,83,0.00,CLR,,0.00,26.0,WeatherDisplay:10.37,2013-09-10 11:58:00,
2013-09-10 07:03:00,73.1,67.6,29.97,WSW,238,3.5,3.8,83,0.00,CLR,,0.00,33.0,WeatherDisplay:10.37,2013-09-10 12:03:00,
2013-09-10 07:08:00,73.3,67.8,29.97,SW,214,5.8,5.8,83,0.00,CLR,,0.00,42.0,WeatherDisplay:10.37,2013-09-10 12:08:00,
2013-09-10 07:13:00,73.4,67.9,29.97,SSW,213,4.6,4.6,83,0.00,CLR,,0.00,53.0,WeatherDisplay:10.37,2013-09-10 12:13:00,
2013-09-10 07:18:00,73.5,67.7,29.97,South,191,6.0,6.0,82,0.00,CLR,,0.00,65.0,WeatherDisplay:10.37,2013-09-10 12:18:00,
2013-09-10 07:23:00,73.7,67.9,29.98,SSW,196,5.8,5.8,82,0.00,CLR,,0.00,77.0,WeatherDisplay:10.37,2013-09-10 12:23:00,
2013-09-10 07:28:00,73.8,68.0,29.98,SSW,205,5.8,5.8,82,0.00,CLR,,0.00,91.0,WeatherDisplay:10.37,2013-09-10 12:28:00,
2013-09-10 07:33:00,74.0,68.2,29.98,SSW,197,4.6,4.6,82,0.00,CLR,,0.00,107.0,WeatherDisplay:10.37,2013-09-10 12:33:00,
2013-09-10 07:38:00,74.3,68.1,29.98,SSW,197,4.6,4.6,81,0.00,CLR,,0.00,125.0,WeatherDisplay:10.37,2013-09-10 12:38:00,
2013-09-10 07:43:00,74.5,67.9,29.98,South,180,6.9,6.9,80,0.00,CLR,,0.00,141.0,WeatherDisplay:10.37,2013-09-10 12:43:00,
2013-09-10 07:48:00,74.7,68.1,29.98,South,188,9.2,9.2,80,0.00,CLR,,0.00,158.0,WeatherDisplay:10.37,2013-09-10 12:48:00,
2013-09-10 07:53:00,75.0,68.4,29.98,South,188,5.8,5.8,80,0.00,CLR,,0.00,176.0,WeatherDisplay:10.37,2013-09-10 12:53:00,
2013-09-10 07:58:00,75.2,67.9,29.98,SW,219,8.1,8.1,78,0.00,CLR,,0.00,193.0,WeatherDisplay:10.37,2013-09-10 12:58:00,
2013-09-10 08:03:00,75.6,68.3,29.99,South,186,8.0,8.0,78,0.00,CLR,,0.00,206.0,WeatherDisplay:10.37,2013-09-10 13:03:00,
2013-09-10 08:08:00,75.9,68.2,29.99,SW,222,8.1,8.1,77,0.00,CLR,,0.00,225.0,WeatherDisplay:10.37,2013-09-10 13:08:00,
2013-09-10 08:13:00,76.1,68.0,29.99,SW,217,6.0,6.0,76,0.00,CLR,,0.00,239.0,WeatherDisplay:10.37,2013-09-10 13:13:00,
2013-09-10 08:18:00,76.5,68.4,29.99,SSW,206,4.6,4.6,76,0.00,CLR,,0.00,255.0,WeatherDisplay:10.37,2013-09-10 13:18:00,
2013-09-10 08:23:00,77.0,68.5,29.99,SSW,198,5.8,5.8,75,0.00,CLR,,0.00,267.0,WeatherDisplay:10.37,2013-09-10 13:23:00,
2013-09-10 08:28:00,77.6,69.0,29.99,SW,217,5.8,5.8,75,0.00,CLR,,0.00,283.0,WeatherDisplay:10.37,2013-09-10 13:28:00,
2013-09-10 08:33:00,78.1,68.7,29.99,SW,221,6.9,6.9,73,0.00,CLR,,0.00,297.0,WeatherDisplay:10.37,2013-09-10 13:33:00,
2013-09-10 08:38:00,78.5,69.1,29.99,SW,214,6.0,6.0,73,0.00,CLR,,0.00,313.0,WeatherDisplay:10.37,2013-09-10 13:38:00,
2013-09-10 08:43:00,78.9,68.3,29.99,SSW,201,10.4,10.4,70,0.00,CLR,,0.00,329.0,WeatherDisplay:10.37,2013-09-10 13:43:00,
2013-09-10 08:49:00,79.6,69.0,29.99,SW,225,7.0,7.0,70,0.00,CLR,,0.00,345.0,WeatherDisplay:10.37,2013-09-10 13:49:00,
2013-09-10 08:54:00,80.2,68.7,29.99,SSW,202,6.9,6.9,68,0.00,CLR,,0.00,359.0,WeatherDisplay:10.37,2013-09-10 13:54:00,
2013-09-10 08:59:00,80.6,69.1,30.00,SSW,212,8.1,8.1,68,0.00,CLR,,0.00,373.0,WeatherDisplay:10.37,2013-09-10 13:59:00,
2013-09-10 09:04:00,81.2,69.2,30.00,SW,223,8.1,8.1,67,0.00,CLR,,0.00,388.0,WeatherDisplay:10.37,2013-09-10 14:04:00,
2013-09-10 09:09:00,81.6,69.1,30.00,SW,223,9.2,9.2,66,0.00,CLR,,0.00,401.0,WeatherDisplay:10.37,2013-09-10 14:09:00,
2013-09-10 09:14:00,82.1,69.6,30.00,SW,219,9.2,9.2,66,0.00,CLR,,0.00,413.0,WeatherDisplay:10.37,2013-09-10 14:14:00,
2013-09-10 09:19:00,82.5,69.1,30.00,SW,233,5.8,5.8,64,0.00,CLR,,0.00,425.0,WeatherDisplay:10.37,2013-09-10 14:19:00,
2013-09-10 09:24:00,83.1,70.1,30.00,SW,227,8.0,8.0,65,0.00,CLR,,0.00,441.0,WeatherDisplay:10.37,2013-09-10 14:24:00,
2013-09-10 09:29:00,83.7,69.3,30.00,WSW,252,8.1,8.1,62,0.00,CLR,,0.00,455.0,WeatherDisplay:10.37,2013-09-10 14:29:00,
2013-09-10 09:34:00,84.3,69.4,30.00,WSW,246,8.0,8.0,61,0.00,CLR,,0.00,469.0,WeatherDisplay:10.37,2013-09-10 14:34:00,
2013-09-10 09:39:00,84.7,69.3,30.00,NW,321,8.1,8.1,60,0.00,CLR,,0.00,483.0,WeatherDisplay:10.37,2013-09-10 14:39:00,
2013-09-10 09:44:00,85.2,68.8,30.00,SW,227,8.0,8.0,58,0.00,CLR,,0.00,496.0,WeatherDisplay:10.37,2013-09-10 14:44:00,
2013-09-10 09:49:00,85.5,69.0,30.00,SW,226,8.1,8.1,58,0.00,CLR,,0.00,506.0,WeatherDisplay:10.37,2013-09-10 14:49:00,
2013-09-10 09:54:00,86.0,68.5,30.00,SW,225,8.1,8.1,56,0.00,CLR,,0.00,522.0,WeatherDisplay:10.37,2013-09-10 14:54:00,
2013-09-10 09:59:00,86.4,68.3,30.00,WNW,291,11.5,11.5,55,0.00,CLR,,0.00,533.0,WeatherDisplay:10.37,2013-09-10 14:59:00,
2013-09-10 10:04:00,86.7,68.6,30.00,WSW,238,16.1,16.1,55,0.00,CLR,,0.00,545.0,WeatherDisplay:10.37,2013-09-10 15:04:00,
2013-09-10 10:09:00,86.9,68.8,30.00,WSW,245,11.5,11.5,55,0.00,CLR,,0.00,557.0,WeatherDisplay:10.37,2013-09-10 15:09:00,
2013-09-10 10:14:00,87.3,70.2,30.00,SW,230,14.0,14.0,57,0.00,CLR,,0.00,566.0,WeatherDisplay:10.37,2013-09-10 15:14:00,
2013-09-10 10:19:00,87.4,69.3,30.00,West,263,11.5,11.5,55,0.00,CLR,,0.00,577.0,WeatherDisplay:10.37,2013-09-10 15:19:00,
2013-09-10 10:24:00,87.7,69.0,30.00,WSW,254,12.7,12.7,54,0.00,CLR,,0.00,585.0,WeatherDisplay:10.37,2013-09-10 15:24:00,
2013-09-10 10:29:00,88.0,70.3,30.00,WSW,242,9.2,9.2,56,0.00,CLR,,0.00,594.0,WeatherDisplay:10.37,2013-09-10 15:29:00,
2013-09-10 10:34:00,88.4,69.6,30.00,WSW,246,11.5,11.5,54,0.00,CLR,,0.00,605.0,WeatherDisplay:10.37,2013-09-10 15:34:00,
2013-09-10 10:39:00,88.6,69.8,30.00,WSW,248,10.4,10.4,54,0.00,CLR,,0.00,613.0,WeatherDisplay:10.37,2013-09-10 15:39:00,
2013-09-10 10:44:00,89.2,69.3,30.00,WSW,237,11.5,11.5,52,0.00,CLR,,0.00,622.0,WeatherDisplay:10.37,2013-09-10 15:44:00,
2013-09-10 10:49:00,89.3,68.8,30.00,West,267,16.0,16.0,51,0.00,CLR,,0.00,633.0,WeatherDisplay:10.37,2013-09-10 15:49:00,
2013-09-10 10:54:00,89.5,68.4,30.00,West,263,11.5,11.5,50,0.00,CLR,,0.00,642.0,WeatherDisplay:10.37,2013-09-10 15:54:00,
2013-09-10 10:59:00,90.0,68.9,30.00,SW,233,11.5,11.5,50,0.00,CLR,,0.00,649.0,WeatherDisplay:10.37,2013-09-10 15:59:00,
2013-09-10 11:04:00,90.4,69.2,30.00,WSW,243,11.5,11.5,50,0.00,CLR,,0.00,657.0,WeatherDisplay:10.37,2013-09-10 16:04:00,
2013-09-10 11:09:00,90.5,68.7,30.00,WSW,244,14.0,14.0,49,0.00,CLR,,0.00,666.0,WeatherDisplay:10.37,2013-09-10 16:09:00,
2013-09-10 11:14:00,90.7,68.3,30.00,WSW,243,13.8,13.8,48,0.00,CLR,,0.00,673.0,WeatherDisplay:10.37,2013-09-10 16:14:00,
2013-09-10 11:19:00,90.6,68.2,29.99,WSW,248,11.5,11.5,48,0.00,CLR,,0.00,680.0,WeatherDisplay:10.37,2013-09-10 16:19:00,
2013-09-10 11:24:00,90.9,69.1,29.99,WSW,244,17.3,17.3,49,0.00,CLR,,0.00,689.0,WeatherDisplay:10.37,2013-09-10 16:24:00,
2013-09-10 11:29:00,91.0,68.0,29.99,SW,231,12.7,12.7,47,0.00,CLR,,0.00,696.0,WeatherDisplay:10.37,2013-09-10 16:29:00,
2013-09-10 11:34:00,91.4,69.6,29.99,SW,227,15.0,15.0,49,0.00,CLR,,0.00,700.0,WeatherDisplay:10.37,2013-09-10 16:34:00,
2013-09-10 11:39:00,91.6,68.5,29.99,WSW,254,14.0,14.0,47,0.00,CLR,,0.00,707.0,WeatherDisplay:10.37,2013-09-10 16:39:00,
2013-09-10 11:44:00,91.7,68.0,29.99,WSW,253,12.7,12.7,46,0.00,CLR,,0.00,715.0,WeatherDisplay:10.37,2013-09-10 16:44:00,
2013-09-10 11:49:00,91.9,68.8,29.99,WSW,242,12.7,12.7,47,0.00,CLR,,0.00,719.0,WeatherDisplay:10.37,2013-09-10 16:49:00,
2013-09-10 11:54:00,92.0,68.3,29.99,WSW,249,16.1,16.1,46,0.00,CLR,,0.00,722.0,WeatherDisplay:10.37,2013-09-10 16:54:00,
2013-09-10 11:59:00,92.2,67.8,29.99,West,279,14.0,14.0,45,0.00,CLR,,0.00,726.0,WeatherDisplay:10.37,2013-09-10 16:59:00,
2013-09-10 12:04:00,92.4,68.0,29.99,NW,304,11.5,11.5,45,0.00,CLR,,0.00,731.0,WeatherDisplay:10.37,2013-09-10 17:04:00,
2013-09-10 12:09:00,92.8,69.6,29.99,SW,232,10.0,10.0,47,0.00,CLR,,0.00,735.0,WeatherDisplay:10.37,2013-09-10 17:09:00,
2013-09-10 12:14:00,93.2,68.0,29.98,SW,234,15.0,15.0,44,0.00,CLR,,0.00,735.0,WeatherDisplay:10.37,2013-09-10 17:14:00,
2013-09-10 12:19:00,93.5,67.6,29.98,WNW,289,10.4,10.4,43,0.00,CLR,,0.00,740.0,WeatherDisplay:10.37,2013-09-10 17:19:00,
2013-09-10 12:24:00,93.4,66.9,29.98,WNW,297,11.5,11.5,42,0.00,CLR,,0.00,740.0,WeatherDisplay:10.37,2013-09-10 17:24:00,
2013-09-10 12:29:00,93.5,67.6,29.98,WSW,252,10.4,10.4,43,0.00,CLR,,0.00,742.0,WeatherDisplay:10.37,2013-09-10 17:29:00,
2013-09-10 12:34:00,93.8,68.6,29.98,WSW,239,13.0,13.0,44,0.00,CLR,,0.00,744.0,WeatherDisplay:10.37,2013-09-10 17:34:00,
2013-09-10 12:39:00,93.7,67.8,29.98,WSW,257,16.1,16.1,43,0.00,CLR,,0.00,747.0,WeatherDisplay:10.37,2013-09-10 17:39:00,
2013-09-10 12:44:00,93.5,69.6,29.98,SW,229,12.7,12.7,46,0.00,CLR,,0.00,745.0,WeatherDisplay:10.37,2013-09-10 17:44:00,
2013-09-10 12:49:00,93.9,68.7,29.98,SW,225,13.8,13.8,44,0.00,CLR,,0.00,747.0,WeatherDisplay:10.37,2013-09-10 17:49:00,
2013-09-10 12:54:00,93.9,68.7,29.98,SW,235,17.0,17.0,44,0.00,CLR,,0.00,742.0,WeatherDisplay:10.37,2013-09-10 17:54:00,
2013-09-10 12:59:00,93.6,67.1,29.98,SW,226,16.1,16.1,42,0.00,CLR,,0.00,742.0,WeatherDisplay:10.37,2013-09-10 17:59:00,
2013-09-10 13:04:00,93.6,67.7,29.98,WSW,255,13.8,13.8,43,0.00,CLR,,0.00,745.0,WeatherDisplay:10.37,2013-09-10 18:04:00,
2013-09-10 13:09:00,94.0,68.1,29.98,WSW,239,13.8,13.8,43,0.00,CLR,,0.00,742.0,WeatherDisplay:10.37,2013-09-10 18:09:00,
2013-09-10 13:14:00,93.9,67.3,29.98,SW,233,15.0,15.0,42,0.00,CLR,,0.00,738.0,WeatherDisplay:10.37,2013-09-10 18:14:00,
2013-09-10 13:19:00,94.1,66.8,29.98,WSW,252,17.3,17.3,41,0.00,CLR,,0.00,737.0,WeatherDisplay:10.37,2013-09-10 18:19:00,
2013-09-10 13:24:00,93.8,67.2,29.98,WNW,285,12.7,12.7,42,0.00,CLR,,0.00,729.0,WeatherDisplay:10.37,2013-09-10 18:24:00,
2013-09-10 13:29:00,94.0,67.4,29.98,West,265,11.5,11.5,42,0.00,CLR,,0.00,724.0,WeatherDisplay:10.37,2013-09-10 18:29:00,
2013-09-10 13:34:00,94.1,66.8,29.98,WNW,298,15.0,15.0,41,0.00,CLR,,0.00,722.0,WeatherDisplay:10.37,2013-09-10 18:34:00,
2013-09-10 13:39:00,93.9,65.9,29.98,WSW,241,19.6,19.6,40,0.00,CLR,,0.00,722.0,WeatherDisplay:10.37,2013-09-10 18:39:00,
2013-09-10 13:44:00,94.2,66.2,29.98,West,261,18.0,18.0,40,0.00,CLR,,0.00,722.0,WeatherDisplay:10.37,2013-09-10 18:44:00,
2013-09-10 13:49:00,94.3,67.0,29.98,SW,216,17.3,17.3,41,0.00,CLR,,0.00,722.0,WeatherDisplay:10.37,2013-09-10 18:49:00,
2013-09-10 13:55:00,94.4,67.8,29.98,West,276,11.5,11.5,42,0.00,CLR,,0.00,701.0,WeatherDisplay:10.37,2013-09-10 18:55:00,
2013-09-10 14:00:00,94.9,66.1,29.98,WSW,245,19.6,19.6,39,0.00,CLR,,0.00,708.0,WeatherDisplay:10.37,2013-09-10 19:00:00,
2013-09-10 14:05:00,94.6,65.8,29.97,WSW,249,15.0,15.0,39,0.00,SCT,,0.00,698.0,WeatherDisplay:10.37,2013-09-10 19:05:00,
2013-09-10 14:10:00,94.7,66.6,29.97,WSW,255,16.1,16.1,40,0.00,SCT,,0.00,705.0,WeatherDisplay:10.37,2013-09-10 19:10:00,
2013-09-10 14:15:00,94.9,67.5,29.97,WSW,238,12.7,12.7,41,0.00,SCT,,0.00,698.0,WeatherDisplay:10.37,2013-09-10 19:15:00,
2013-09-10 14:20:00,95.0,66.9,29.97,SW,235,13.8,13.8,40,0.00,SCT,,0.00,682.0,WeatherDisplay:10.37,2013-09-10 19:20:00,
2013-09-10 14:25:00,95.0,66.2,29.97,WSW,254,20.7,20.7,39,0.00,SCT,,0.00,682.0,WeatherDisplay:10.37,2013-09-10 19:25:00,
2013-09-10 14:30:00,95.0,66.9,29.97,WSW,245,9.2,9.2,40,0.00,SCT,,0.00,673.0,WeatherDisplay:10.37,2013-09-10 19:30:00,
2013-09-10 14:35:00,95.5,66.6,29.96,SSW,211,13.8,13.8,39,0.00,SCT,,0.00,661.0,WeatherDisplay:10.37,2013-09-10 19:35:00,
2013-09-10 14:40:00,95.7,66.8,29.96,WSW,244,13.8,13.8,39,0.00,SCT,,0.00,649.0,WeatherDisplay:10.37,2013-09-10 19:40:00,
2013-09-10 14:45:00,95.8,67.6,29.96,WSW,256,15.0,15.0,40,0.00,SCT,,0.00,647.0,WeatherDisplay:10.37,2013-09-10 19:45:00,
2013-09-10 14:50:00,95.9,66.2,29.96,WNW,290,15.0,15.0,38,0.00,SCT,,0.00,633.0,WeatherDisplay:10.37,2013-09-10 19:50:00,
2013-09-10 14:55:00,95.8,66.1,29.96,WSW,238,11.5,11.5,38,0.00,SCT,,0.00,622.0,WeatherDisplay:10.37,2013-09-10 19:55:00,
2013-09-10 15:00:00,95.6,66.7,29.96,WSW,242,11.5,11.5,39,0.00,SCT,,0.00,621.0,WeatherDisplay:10.37,2013-09-10 20:00:00,
2013-09-10 15:05:00,95.6,68.8,29.95,South,188,12.0,12.0,42,0.00,SCT,,0.00,622.0,WeatherDisplay:10.37,2013-09-10 20:05:00,
2013-09-10 15:10:00,95.8,68.3,29.95,SW,224,11.5,11.5,41,0.00,SCT,,0.00,608.0,WeatherDisplay:10.37,2013-09-10 20:10:00,
2013-09-10 15:15:00,96.0,67.0,29.95,West,279,15.0,15.0,39,0.00,SCT,,0.00,598.0,WeatherDisplay:10.37,2013-09-10 20:15:00,
2013-09-10 15:20:00,96.0,67.0,29.95,SW,232,13.8,13.8,39,0.00,SCT,,0.00,573.0,WeatherDisplay:10.37,2013-09-10 20:20:00,
2013-09-10 15:25:00,95.5,67.3,29.95,SW,234,10.4,10.4,40,0.00,SCT,,0.00,603.0,WeatherDisplay:10.37,2013-09-10 20:25:00,
2013-09-10 15:30:00,95.6,66.7,29.95,WNW,285,13.8,13.8,39,0.00,SCT,,0.00,563.0,WeatherDisplay:10.37,2013-09-10 20:30:00,
2013-09-10 15:35:00,95.8,67.6,29.95,SSW,213,16.1,16.1,40,0.00,SCT,,0.00,554.0,WeatherDisplay:10.37,2013-09-10 20:35:00,
2013-09-10 15:40:00,95.6,68.1,29.95,SW,219,9.2,9.2,41,0.00,SCT,,0.00,540.0,WeatherDisplay:10.37,2013-09-10 20:40:00,
2013-09-10 15:45:00,95.8,66.1,29.94,SW,236,17.3,17.3,38,0.00,SCT,,0.00,519.0,WeatherDisplay:10.37,2013-09-10 20:45:00,
2013-09-10 15:50:00,95.8,66.9,29.94,West,271,13.8,13.8,39,0.00,SCT,,0.00,503.0,WeatherDisplay:10.37,2013-09-10 20:50:00,
2013-09-10 15:55:00,95.6,65.9,29.94,SW,221,18.4,18.4,38,0.00,SCT,,0.00,482.0,WeatherDisplay:10.37,2013-09-10 20:55:00,
2013-09-10 16:00:00,95.5,65.9,29.94,WSW,250,16.1,16.1,38,0.00,SCT,,0.00,469.0,WeatherDisplay:10.37,2013-09-10 21:00:00,
2013-09-10 16:05:00,95.5,65.9,29.94,SW,231,14.0,14.0,38,0.00,SCT,,0.00,445.0,WeatherDisplay:10.37,2013-09-10 21:05:00,
2013-09-10 16:10:00,95.4,65.8,29.94,WSW,237,14.0,14.0,38,0.00,SCT,,0.00,448.0,WeatherDisplay:10.37,2013-09-10 21:10:00,
2013-09-10 16:15:00,95.5,65.1,29.94,SW,232,13.8,13.8,37,0.00,SCT,,0.00,432.0,WeatherDisplay:10.37,2013-09-10 21:15:00,
2013-09-10 16:20:00,95.6,65.2,29.93,WNW,298,11.5,11.5,37,0.00,SCT,,0.00,418.0,WeatherDisplay:10.37,2013-09-10 21:20:00,
2013-09-10 16:25:00,95.6,64.4,29.93,NW,307,18.4,18.4,36,0.00,SCT,,0.00,410.0,WeatherDisplay:10.37,2013-09-10 21:25:00,
2013-09-10 16:30:00,95.5,65.1,29.93,WSW,253,16.1,16.1,37,0.00,SCT,,0.00,388.0,WeatherDisplay:10.37,2013-09-10 21:30:00,
2013-09-10 16:35:00,95.2,65.6,29.93,SW,221,17.3,17.3,38,0.00,SCT,,0.00,369.0,WeatherDisplay:10.37,2013-09-10 21:35:00,
2013-09-10 16:40:00,95.3,64.9,29.93,SW,236,12.7,12.7,37,0.00,SCT,,0.00,371.0,WeatherDisplay:10.37,2013-09-10 21:40:00,
2013-09-10 16:45:00,95.4,65.8,29.93,SW,233,12.0,12.0,38,0.00,SCT,,0.00,350.0,WeatherDisplay:10.37,2013-09-10 21:45:00,
2013-09-10 16:50:00,95.2,65.6,29.93,SW,232,13.0,13.0,38,0.00,CLR,,0.00,343.0,WeatherDisplay:10.37,2013-09-10 21:50:00,
2013-09-10 16:55:00,94.9,64.6,29.93,West,264,16.1,16.1,37,0.00,CLR,,0.00,323.0,WeatherDisplay:10.37,2013-09-10 21:55:00,
2013-09-10 17:00:00,94.7,65.9,29.93,SW,219,18.4,18.4,39,0.00,CLR,,0.00,301.0,WeatherDisplay:10.37,2013-09-10 22:00:00,
2013-09-10 17:05:00,94.8,66.0,29.93,West,261,14.0,14.0,39,0.00,CLR,,0.00,297.0,WeatherDisplay:10.37,2013-09-10 22:05:00,
2013-09-10 17:10:00,94.8,65.2,29.93,WSW,249,13.8,13.8,38,0.00,CLR,,0.00,272.0,WeatherDisplay:10.37,2013-09-10 22:10:00,
2013-09-10 17:15:00,94.4,64.9,29.93,WSW,246,16.1,16.1,38,0.00,CLR,,0.00,262.0,WeatherDisplay:10.37,2013-09-10 22:15:00,
2013-09-10 17:20:00,94.3,64.8,29.93,SW,227,12.0,12.0,38,0.00,CLR,,0.00,251.0,WeatherDisplay:10.37,2013-09-10 22:20:00,
2013-09-10 17:25:00,94.2,64.7,29.93,SW,228,13.8,13.8,38,0.00,CLR,,0.00,234.0,WeatherDisplay:10.37,2013-09-10 22:25:00,
2013-09-10 17:30:00,94.1,65.4,29.94,WSW,245,11.5,11.5,39,0.00,CLR,,0.00,225.0,WeatherDisplay:10.37,2013-09-10 22:30:00,
2013-09-10 17:35:00,94.0,65.3,29.93,SSW,211,12.7,12.7,39,0.00,CLR,,0.00,209.0,WeatherDisplay:10.37,2013-09-10 22:35:00,
2013-09-10 17:40:00,93.8,64.3,29.94,SSW,213,12.7,12.7,38,0.00,CLR,,0.00,186.0,WeatherDisplay:10.37,2013-09-10 22:40:00,
2013-09-10 17:45:00,93.6,65.6,29.94,SW,234,11.5,11.5,40,0.00,CLR,,0.00,169.0,WeatherDisplay:10.37,2013-09-10 22:45:00,
2013-09-10 17:50:00,93.5,65.6,29.94,WSW,237,9.2,9.2,40,0.00,CLR,,0.00,156.0,WeatherDisplay:10.37,2013-09-10 22:50:00,
2013-09-10 17:55:00,93.3,65.4,29.94,WSW,242,8.1,8.1,40,0.00,CLR,,0.00,139.0,WeatherDisplay:10.37,2013-09-10 22:55:00,
2013-09-10 18:00:00,93.2,66.0,29.94,SW,215,8.1,8.1,41,0.00,CLR,,0.00,116.0,WeatherDisplay:10.37,2013-09-10 23:00:00,
2013-09-10 18:05:00,92.9,65.7,29.95,SW,232,9.2,9.2,41,0.00,CLR,,0.00,104.0,WeatherDisplay:10.37,2013-09-10 23:05:00,
2013-09-10 18:10:00,92.6,66.2,29.95,SW,222,10.4,10.4,42,0.00,CLR,,0.00,53.0,WeatherDisplay:10.37,2013-09-10 23:10:00,
2013-09-10 18:15:00,92.2,65.8,29.95,SW,231,11.5,11.5,42,0.00,CLR,,0.00,42.0,WeatherDisplay:10.37,2013-09-10 23:15:00,
2013-09-10 18:20:00,91.9,65.5,29.95,SW,236,10.4,10.4,42,0.00,CLR,,0.00,39.0,WeatherDisplay:10.37,2013-09-10 23:20:00,
2013-09-10 18:25:00,91.7,66.0,29.95,SW,219,10.4,10.4,43,0.00,CLR,,0.00,35.0,WeatherDisplay:10.37,2013-09-10 23:25:00,
2013-09-10 18:30:00,91.4,65.1,29.95,WSW,240,10.4,10.4,42,0.00,CLR,,0.00,32.0,WeatherDisplay:10.37,2013-09-10 23:30:00,
2013-09-10 18:35:00,91.0,65.4,29.95,SSW,209,11.5,11.5,43,0.00,CLR,,0.00,28.0,WeatherDisplay:10.37,2013-09-10 23:35:00,
2013-09-10 18:40:00,90.8,65.2,29.95,SSW,197,8.1,8.1,43,0.00,CLR,,0.00,23.0,WeatherDisplay:10.37,2013-09-10 23:40:00,
2013-09-10 18:45:00,90.6,65.7,29.95,SW,223,6.9,6.9,44,0.00,CLR,,0.00,19.0,WeatherDisplay:10.37,2013-09-10 23:45:00,
2013-09-10 18:50:00,90.2,65.3,29.96,SSW,196,6.9,6.9,44,0.00,CLR,,0.00,16.0,WeatherDisplay:10.37,2013-09-10 23:50:00,
2013-09-10 18:55:00,89.7,65.5,29.96,SW,222,6.9,6.9,45,0.00,CLR,,0.00,11.0,WeatherDisplay:10.37,2013-09-10 23:55:00,
2013-09-10 19:00:00,89.4,65.9,29.96,SSW,200,6.9,6.9,46,0.00,CLR,,0.00,7.0,WeatherDisplay:10.37,2013-09-11 00:00:00,
2013-09-10 19:05:00,89.3,65.8,29.96,SSW,208,5.0,5.0,46,0.00,CLR,,0.00,5.0,WeatherDisplay:10.37,2013-09-11 00:05:00,
2013-09-10 19:10:00,89.1,65.6,29.97,SSW,203,7.0,7.0,46,0.00,CLR,,0.00,0.0,WeatherDisplay:10.37,2013-09-11 00:10:00,
2013-09-10 19:16:00,88.8,66.0,29.97,SSW,202,6.9,6.9,47,0.00,CLR,,0.00,0.0,WeatherDisplay:10.37,2013-09-11 00:16:00,
2013-09-10 19:21:00,88.4,66.2,29.97,SSW,206,6.9,6.9,48,0.00,CLR,,0.00,0.0,WeatherDisplay:10.37,2013-09-11 00:21:00,
2013-09-10 19:26:00,88.1,66.5,29.97,SW,214,4.6,4.6,49,0.00,CLR,,0.00,0.0,WeatherDisplay:10.37,2013-09-11 00:26:00,
2013-09-10 19:31:00,87.9,66.4,29.97,SSW,213,6.0,6.0,49,0.00,CLR,,0.00,0.0,WeatherDisplay:10.37,2013-09-11 00:31:00,
2013-09-10 19:36:00,87.9,66.4,29.98,South,191,8.1,8.1,49,0.00,CLR,,0.00,0.0,WeatherDisplay:10.37,2013-09-11 00:36:00,
2013-09-10 19:41:00,87.9,66.4,29.98,SSW,209,8.1,8.1,49,0.00,CLR,,0.00,0.0,WeatherDisplay:10.37,2013-09-11 00:41:00,
2013-09-10 19:46:00,87.8,65.7,29.98,SSW,212,10.4,10.4,48,0.00,CLR,,0.00,0.0,WeatherDisplay:10.37,2013-09-11 00:46:00,
2013-09-10 19:51:00,87.7,65.6,29.98,SW,221,12.7,12.7,48,0.00,CLR,,0.00,0.0,WeatherDisplay:10.37,2013-09-11 00:51:00,
2013-09-10 19:56:00,87.6,65.5,29.98,SSW,198,8.0,8.0,48,0.00,CLR,,0.00,0.0,WeatherDisplay:10.37,2013-09-11 00:56:00,
2013-09-10 20:01:00,87.7,65.0,29.98,SW,232,12.0,12.0,47,0.00,CLR,,0.00,0.0,WeatherDisplay:10.37,2013-09-11 01:01:00,
2013-09-10 20:06:00,87.6,64.9,29.98,SSW,207,9.2,9.2,47,0.00,CLR,,0.00,0.0,WeatherDisplay:10.37,2013-09-11 01:06:00,
2013-09-10 20:11:00,87.5,65.4,29.98,SW,230,10.4,10.4,48,0.00,CLR,,0.00,0.0,WeatherDisplay:10.37,2013-09-11 01:11:00,
2013-09-10 20:16:00,87.2,65.1,29.98,SSW,207,6.9,6.9,48,0.00,CLR,,0.00,0.0,WeatherDisplay:10.37,2013-09-11 01:16:00,
2013-09-10 20:21:00,87.1,64.4,29.98,SW,215,10.4,10.4,47,0.00,CLR,,0.00,0.0,WeatherDisplay:10.37,2013-09-11 01:21:00,
2013-09-10 20:26:00,86.9,64.8,29.98,SSW,204,10.4,10.4,48,0.00,CLR,,0.00,0.0,WeatherDisplay:10.37,2013-09-11 01:26:00,
2013-09-10 20:31:00,86.6,64.6,29.99,SW,234,9.2,9.2,48,0.00,CLR,,0.00,0.0,WeatherDisplay:10.37,2013-09-11 01:31:00,
2013-09-10 20:36:00,86.3,64.9,29.99,SW,223,10.4,10.4,49,0.00,CLR,,0.00,0.0,WeatherDisplay:10.37,2013-09-11 01:36:00,
2013-09-10 20:41:00,85.8,65.0,29.99,SW,223,8.1,8.1,50,0.00,CLR,,0.00,0.0,WeatherDisplay:10.37,2013-09-11 01:41:00,
2013-09-10 20:46:00,85.4,64.6,29.99,SW,226,10.4,10.4,50,0.00,CLR,,0.00,0.0,WeatherDisplay:10.37,2013-09-11 01:46:00,
2013-09-10 20:51:00,85.0,64.8,29.99,SSW,199,11.5,11.5,51,0.00,CLR,,0.00,0.0,WeatherDisplay:10.37,2013-09-11 01:51:00,
2013-09-10 20:56:00,85.0,64.8,29.99,SSW,205,8.0,8.0,51,0.00,CLR,,0.00,0.0,WeatherDisplay:10.37,2013-09-11 01:56:00,
2013-09-10 21:01:00,84.9,65.3,29.99,SSW,198,10.4,10.4,52,0.00,CLR,,0.00,0.0,WeatherDisplay:10.37,2013-09-11 02:01:00,
2013-09-10 21:06:00,84.7,65.1,29.99,SW,224,9.0,9.0,52,0.00,CLR,,0.00,0.0,WeatherDisplay:10.37,2013-09-11 02:06:00,
2013-09-10 21:11:00,84.6,65.0,29.99,SW,220,9.2,9.2,52,0.00,CLR,,0.00,0.0,WeatherDisplay:10.37,2013-09-11 02:11:00,
2013-09-10 21:16:00,84.5,64.9,29.99,SW,223,11.5,11.5,52,0.00,CLR,,0.00,0.0,WeatherDisplay:10.37,2013-09-11 02:16:00,
2013-09-10 21:21:00,84.2,65.2,29.99,WSW,237,10.0,10.0,53,0.00,CLR,,0.00,0.0,WeatherDisplay:10.37,2013-09-11 02:21:00,
2013-09-10 21:26:00,83.8,65.4,29.99,SW,236,8.1,8.1,54,0.00,CLR,,0.00,0.0,WeatherDisplay:10.37,2013-09-11 02:26:00,
2013-09-10 21:31:00,83.5,65.1,29.99,SW,223,9.2,9.2,54,0.00,CLR,,0.00,0.0,WeatherDisplay:10.37,2013-09-11 02:31:00,
2013-09-10 21:36:00,83.3,65.4,29.99,WSW,244,9.0,9.0,55,0.00,CLR,,0.00,0.0,WeatherDisplay:10.37,2013-09-11 02:36:00,
2013-09-10 21:41:00,83.1,65.3,29.99,SW,234,8.1,8.1,55,0.00,CLR,,0.00,0.0,WeatherDisplay:10.37,2013-09-11 02:41:00,
2013-09-10 21:46:00,83.0,65.7,29.99,SW,234,10.4,10.4,56,0.00,CLR,,0.00,0.0,WeatherDisplay:10.37,2013-09-11 02:46:00,
2013-09-10 21:51:00,82.9,65.6,29.99,SW,231,6.9,6.9,56,0.00,CLR,,0.00,0.0,WeatherDisplay:10.37,2013-09-11 02:51:00,
2013-09-10 21:56:00,82.9,66.1,29.99,SW,227,9.2,9.2,57,0.00,CLR,,0.00,0.0,WeatherDisplay:10.37,2013-09-11 02:56:00,
2013-09-10 22:01:00,82.8,66.0,30.00,SSW,200,6.9,6.9,57,0.00,CLR,,0.00,0.0,WeatherDisplay:10.37,2013-09-11 03:01:00,
2013-09-10 22:06:00,82.8,66.0,30.00,SSW,201,8.0,8.0,57,0.00,CLR,,0.00,0.0,WeatherDisplay:10.37,2013-09-11 03:06:00,
2013-09-10 22:11:00,82.7,65.9,30.00,SW,217,6.0,6.0,57,0.00,CLR,,0.00,0.0,WeatherDisplay:10.37,2013-09-11 03:11:00,
2013-09-10 22:16:00,82.4,66.1,30.00,South,190,8.1,8.1,58,0.00,CLR,,0.00,0.0,WeatherDisplay:10.37,2013-09-11 03:16:00,
2013-09-10 22:22:00,82.2,66.0,30.00,SW,215,7.0,7.0,58,0.00,CLR,,0.00,0.0,WeatherDisplay:10.37,2013-09-11 03:22:00,
2013-09-10 22:27:00,82.1,66.4,30.00,SSW,205,9.2,9.2,59,0.00,CLR,,0.00,0.0,WeatherDisplay:10.37,2013-09-11 03:27:00,
2013-09-10 22:32:00,81.8,66.6,30.00,SSW,205,10.4,10.4,60,0.00,CLR,,0.00,0.0,WeatherDisplay:10.37,2013-09-11 03:32:00,
2013-09-10 22:37:00,81.6,66.4,30.00,South,169,8.1,8.1,60,0.00,CLR,,0.00,0.0,WeatherDisplay:10.37,2013-09-11 03:37:00,
2013-09-10 22:42:00,81.1,66.8,30.00,SSW,212,5.8,5.8,62,0.00,CLR,,0.00,0.0,WeatherDisplay:10.37,2013-09-11 03:42:00,
2013-09-10 22:47:00,80.6,66.4,30.00,South,184,9.2,9.2,62,0.00,CLR,,0.00,0.0,WeatherDisplay:10.37,2013-09-11 03:47:00,
2013-09-10 22:52:00,80.2,66.5,30.00,South,182,5.8,5.8,63,0.00,CLR,,0.00,0.0,WeatherDisplay:10.37,2013-09-11 03:52:00,
2013-09-10 22:57:00,79.7,66.4,30.00,SSW,205,4.6,4.6,64,0.00,CLR,,0.00,0.0,WeatherDisplay:10.37,2013-09-11 03:57:00,
2013-09-10 23:01:00,79.5,66.7,30.00,SSW,209,5.8,5.8,65,0.00,CLR,,0.00,0.0,WeatherDisplay:10.37,2013-09-11 04:01:00,
2013-09-10 23:02:00,79.5,66.7,30.00,SSW,198,6.9,6.9,65,0.00,CLR,,0.00,0.0,WeatherDisplay:10.37,2013-09-11 04:02:00,
2013-09-10 23:07:00,79.3,66.5,30.00,SSW,195,6.0,6.0,65,0.00,CLR,,0.00,0.0,WeatherDisplay:10.37,2013-09-11 04:07:00,
2013-09-10 23:12:00,78.6,66.3,30.00,South,178,4.6,4.6,66,0.00,CLR,,0.00,0.0,WeatherDisplay:10.37,2013-09-11 04:12:00,
2013-09-10 23:17:00,77.7,66.3,30.00,South,180,8.1,8.1,68,0.00,CLR,,0.00,0.0,WeatherDisplay:10.37,2013-09-11 04:17:00,
2013-09-10 23:22:00,77.4,66.4,30.00,South,182,6.9,6.9,69,0.00,CLR,,0.00,0.0,WeatherDisplay:10.37,2013-09-11 04:22:00,
2013-09-10 23:27:00,77.3,66.3,30.00,South,182,5.8,5.8,69,0.00,CLR,,0.00,0.0,WeatherDisplay:10.37,2013-09-11 04:27:00,
2013-09-10 23:32:00,76.9,66.8,30.00,South,183,5.8,5.8,71,0.00,CLR,,0.00,0.0,WeatherDisplay:10.37,2013-09-11 04:32:00,
2013-09-10 23:37:00,76.4,66.7,30.00,South,178,8.1,8.1,72,0.00,CLR,,0.00,0.0,WeatherDisplay:10.37,2013-09-11 04:37:00,
2013-09-10 23:42:00,76.3,67.4,30.00,South,180,9.2,9.2,74,0.00,CLR,,0.00,0.0,WeatherDisplay:10.37,2013-09-11 04:42:00,
2013-09-10 23:47:00,76.5,68.0,30.00,SSW,211,8.0,8.0,75,0.00,CLR,,0.00,0.0,WeatherDisplay:10.37,2013-09-11 04:47:00,
2013-09-10 23:52:00,76.7,68.6,29.99,SSW,200,8.1,8.1,76,0.00,CLR,,0.00,0.0,WeatherDisplay:10.37,2013-09-11 04:52:00,
2013-09-10 23:57:00,76.9,68.8,29.99,SSW,200,6.9,6.9,76,0.00,CLR,,0.00,0.0,WeatherDisplay:10.37,2013-09-11 04:57:00,